"Pseudo-MPEC" for P21vsrI

Created 2022 Aug 15 15:22:22 UT using Find_Orb

Click here for an explanation of pseudo-MPECs

 
 Astrometry: 
     P21vsrI* C2022 07 26=dBv#GX=,%s98P/,[tAstrometry.r.G25redacted;swclicks)F52
     P21vsrI  C2022 07 26-:FL6vO^TGjY@]LJFX,tfX(3D(IYvG@6Hl'DveyC/2=F^hlNf]`HF52
     P21vsrI  C2022 07 26J+*M#cJJ):LvAKL`Joo6foO.aE\'(C)S(3Z+v*/Zy\0t-\[1Q*GqF52
     P21vsrI  C2022 07 26v;vbw$_1A:lLjP\JOZJ%_6Gi7?Chy9d;6h!pTBdFhereIforUv+YF52
     P21vsrI  C2022 07 26#n*(dif2/explanation_0w^Iay_*T/^Qt*)Z+`b0DjO3b;q0o^YF52

Station data:
(F52) Pan-STARRS 2, Haleakala  (N20.707382 W156.255910)  US/Hawaii.
   Observers J. Bulger, T. Dukes, T. Lowe, A. Schultz, M. Willman. Measurers
   K. Chambers, S. Chastel, T. de Boer, L. Denneau, J. Fairlamb, H.
   Flewelling, M. Huber, C.-C. Lin, E. Magnier, Y. Ramanjooloo, R. Wainscoat,
   R. Weryk. 1.8-m Ritchey-Chrétien + CCD.

Orbital elements:  P21vsrI
   Perihelion 2022 Sep 3.53957 +/- 46.1 TT = 12:56:59 (JD 2459826.03957)
Epoch 2022 Jul 26.0 TT = JDT 2459786.5   Earth MOID: 0.3205   Ma: 0.0516
M 351.27762865 +/- 17               (J2000 ecliptic)          AutoNEOCP
n   0.22059851 +/- 0.227            Peri.  196.69762 +/- 60
a   2.71269513 +/- 1.86             Node   137.47574 +/- 32
e   0.5109890 +/- 0.251             Incl.   12.18409 +/- 5.3
P   4.47                   H 22.5   G  0.15   U 11.7  SR
q 1.32653750 +/- 0.307    Q 4.09885275 +/- 55
From 5 observations 2022 July 26 (3.2 hr); mean residual 0".06
Residuals in arcseconds: 
220726 F52  .10-  .06+    220726 F52  .06+  .04-    220726 F52  .01+  .08+    
220726 F52  .07+  .04-    220726 F52  .04-  .07-    

Ephemerides (geocentric):
Date (UTC) HH   RA             Dec           delta  r     elong  mag " sig PA
---- --------  ------------   ------------  ------ ------ -----  --- --------
2022 08 15 15  20 49 25.484   -19 21 25.30  .33553 1.3418 166.9 21.4  57d 176
2022 08 15 16  20 49 28.579   -19 22 55.01  .33551 1.3417 166.9 21.4  57d 176
2022 08 15 17  20 49 31.678   -19 24 24.71  .33549 1.3416 166.9 21.4  57d 176
2022 08 15 18  20 49 34.780   -19 25 54.40  .33547 1.3416 166.8 21.4  57d 176
2022 08 15 19  20 49 37.886   -19 27 24.08  .33545 1.3415 166.8 21.4  57d 176
2022 08 15 20  20 49 40.997   -19 28 53.76  .33543 1.3414 166.7 21.4  57d 176
2022 08 15 21  20 49 44.111   -19 30 23.43  .33541 1.3414 166.7 21.4  57d 176
2022 08 15 22  20 49 47.228   -19 31 53.09  .33539 1.3413 166.7 21.4  57d 176
2022 08 15 23  20 49 50.350   -19 33 22.74  .33537 1.3412 166.6 21.4  57d 176
2022 08 16 00  20 49 53.476   -19 34 52.38  .33535 1.3412 166.6 21.4  57d 176
2022 08 16 01  20 49 56.605   -19 36 22.02  .33533 1.3411 166.5 21.4  57d 176
2022 08 16 02  20 49 59.738   -19 37 51.64  .33531 1.3410 166.5 21.4  57d 176
2022 08 16 03  20 50 02.875   -19 39 21.26  .33530 1.3410 166.5 21.4  57d 176
2022 08 16 04  20 50 06.016   -19 40 50.87  .33528 1.3409 166.4 21.4  57d 176
2022 08 16 05  20 50 09.161   -19 42 20.46  .33526 1.3408 166.4 21.4  57d 176
2022 08 16 06  20 50 12.310   -19 43 50.05  .33524 1.3408 166.4 21.4  57d 176
2022 08 16 07  20 50 15.463   -19 45 19.63  .33523 1.3407 166.3 21.4  57d 176
2022 08 16 08  20 50 18.619   -19 46 49.19  .33521 1.3407 166.3 21.4  57d 176
2022 08 16 09  20 50 21.779   -19 48 18.75  .33519 1.3406 166.2 21.4  57d 176
2022 08 16 10  20 50 24.944   -19 49 48.29  .33518 1.3405 166.2 21.4  57d 176
2022 08 16 11  20 50 28.112   -19 51 17.82  .33516 1.3405 166.2 21.4  57d 176
2022 08 16 12  20 50 31.284   -19 52 47.34  .33514 1.3404 166.1 21.4  57d 176
2022 08 16 13  20 50 34.460   -19 54 16.85  .33513 1.3403 166.1 21.4  57d 176
2022 08 16 14  20 50 37.640   -19 55 46.35  .33511 1.3403 166.1 21.4  57d 176
2022 08 16 15  20 50 40.823   -19 57 15.83  .33510 1.3402 166.0 21.4  57d 176
2022 08 16 16  20 50 44.011   -19 58 45.30  .33508 1.3401 166.0 21.4  57d 176
2022 08 16 17  20 50 47.202   -20 00 14.76  .33507 1.3401 165.9 21.4  57d 176
2022 08 16 18  20 50 50.398   -20 01 44.20  .33506 1.3400 165.9 21.4  57d 176
2022 08 16 19  20 50 53.597   -20 03 13.63  .33504 1.3400 165.9 21.4  57d 176
2022 08 16 20  20 50 56.800   -20 04 43.05  .33503 1.3399 165.8 21.4  57d 176
2022 08 16 21  20 51 00.007   -20 06 12.45  .33502 1.3398 165.8 21.4  57d 176
2022 08 16 22  20 51 03.218   -20 07 41.84  .33500 1.3398 165.7 21.4  57d 176
2022 08 16 23  20 51 06.433   -20 09 11.21  .33499 1.3397 165.7 21.4  57d 176
2022 08 17 00  20 51 09.652   -20 10 40.57  .33498 1.3396 165.7 21.4  57d 176
2022 08 17 01  20 51 12.875   -20 12 09.91  .33497 1.3396 165.6 21.4  58d 176
2022 08 17 02  20 51 16.102   -20 13 39.24  .33495 1.3395 165.6 21.4  58d 176
2022 08 17 03  20 51 19.333   -20 15 08.55  .33494 1.3395 165.6 21.4  58d 176
2022 08 17 04  20 51 22.567   -20 16 37.85  .33493 1.3394 165.5 21.4  58d 176
2022 08 17 05  20 51 25.806   -20 18 07.13  .33492 1.3393 165.5 21.4  58d 176
2022 08 17 06  20 51 29.048   -20 19 36.39  .33491 1.3393 165.4 21.4  58d 176
2022 08 17 07  20 51 32.295   -20 21 05.63  .33490 1.3392 165.4 21.4  58d 176
2022 08 17 08  20 51 35.545   -20 22 34.86  .33489 1.3392 165.4 21.4  58d 176
2022 08 17 09  20 51 38.800   -20 24 04.07  .33488 1.3391 165.3 21.4  58d 176
2022 08 17 10  20 51 42.058   -20 25 33.27  .33487 1.3390 165.3 21.4  58d 176
2022 08 17 11  20 51 45.320   -20 27 02.44  .33486 1.3390 165.2 21.5  58d 176
2022 08 17 12  20 51 48.586   -20 28 31.60  .33485 1.3389 165.2 21.5  58d 176
2022 08 17 13  20 51 51.857   -20 30 00.74  .33484 1.3389 165.2 21.5  58d 176
2022 08 17 14  20 51 55.131   -20 31 29.86  .33483 1.3388 165.1 21.5  58d 176